Longview, TX

9:17 PM CST on February 25, 2017 (GMT -0600)
Gregg County

Weather History for KGGG - May, 2013

Change the Weather History Date:

Friday, May 24, 2013

  Actual Average Record
Temperature  
Mean Temperature 79 °F 75 °F  
Max Temperature 88 °F 85 °F 99 °F (1936)
Min Temperature 70 °F 64 °F 50 °F (1931)
Degree Days  
Heating Degree Days 0 0  
Month to date heating degree days 44 8  
Since 1 July heating degree days 2062 2257  
Cooling Degree Days 14 10  
Month to date cooling degree days 166 180  
Year to date cooling degree days 283 303  
Growing Degree Days 29 (Base 50)    
Moisture  
Dew Point 69 °F    
Average Humidity 76    
Maximum Humidity 93    
Minimum Humidity 59    
Precipitation  
Precipitation 0.00 in 0.15 in 2.05 in (1952)
Month to date precipitation 2.79 3.66  
Year to date precipitation 16.73 18.59  
Snow  
Snow 0.00 in - - ()
Month to date snowfall 0.0  
Since 1 July snowfall 0.8  
Snow Depth 0.00 in    
Sea Level Pressure  
Sea Level Pressure 30.10 in    
Wind  
Wind Speed 6 mph (East)    
Max Wind Speed 14 mph    
Max Gust Speed 20 mph    
Visibility 8 miles    
Events      
T = Trace of Precipitation, MM = Missing Value Source: NWS Daily Summary

Daily Weather History Graph

Daily Weather History Graph

Search for Another Location

Airport or City:

Trip Planner

Search our weather history database for the weather conditions in past years. The results will help you decide how hot, cold, wet, or windy it might be!

Date:

Astronomy

May. 24, 2013 Rise Set
Actual Time 6:15 AM CDT 8:16 PM CDT
Civil Twilight 5:47 AM CDT 8:43 PM CDT
Nautical Twilight 5:14 AM CDT 9:17 PM CDT
Astronomical Twilight 4:38 AM CDT 9:53 PM CDT
Moon 8:00 PM CDT (5/24) 5:45 AM CDT (5/24)
Length of Visible Light 14h 56m
Length of Day
14h 00m
Full, 100% of the Moon is Illuminated
May 24
Full
May 24
Full
May 31
Last Quarter
Jun 8
New
Jun 16
First Quarter

Hourly Weather History & Observations

Time (CDT) Temp. Heat Index Dew Point Humidity Pressure Visibility Wind Dir Wind Speed Gust Speed Precip Events Conditions
12:53 AM 73.0 °F - 69.1 °F 87% 30.03 in 7.0 mi SE 5.8 mph - N/A   Clear
1:53 AM 73.9 °F - 69.1 °F 85% 30.02 in 8.0 mi ESE 3.5 mph - N/A   Clear
2:53 AM 73.9 °F - 69.1 °F 85% 30.02 in 7.0 mi NE 4.6 mph - N/A   Overcast
3:53 AM 72.0 °F - 69.1 °F 91% 30.03 in 6.0 mi ENE 3.5 mph - N/A   Scattered Clouds
4:53 AM 72.0 °F - 69.1 °F 91% 30.05 in 6.0 mi Calm Calm - N/A   Partly Cloudy
5:53 AM 71.1 °F - 68.0 °F 90% 30.06 in 5.0 mi Calm Calm - N/A   Clear
6:53 AM 71.1 °F - 69.1 °F 93% 30.07 in 3.0 mi ENE 3.5 mph - N/A   Clear
7:53 AM 73.9 °F - 70.0 °F 87% 30.11 in 5.0 mi East 5.8 mph - N/A   Scattered Clouds
8:53 AM 75.9 °F - 70.0 °F 82% 30.13 in 6.0 mi ENE 6.9 mph - N/A   Haze
9:27 AM 75.2 °F - 69.8 °F 83% 30.16 in 6.0 mi NE 9.2 mph - N/A   Haze
9:53 AM 75.9 °F - 70.0 °F 82% 30.16 in 3.0 mi ENE 8.1 mph - N/A   Haze
10:53 AM 77.0 °F - 69.1 °F 76% 30.16 in 7.0 mi East 5.8 mph - 0.02 in   Overcast
11:24 AM 80.6 °F 83.9 °F 69.8 °F 70% 30.18 in 7.0 mi ENE 4.6 mph - N/A   Overcast
11:53 AM 80.1 °F 83.2 °F 70.0 °F 71% 30.17 in 7.0 mi East 9.2 mph - N/A   Overcast
12:53 PM 82.9 °F 87.5 °F 71.1 °F 67% 30.15 in 8.0 mi ENE 6.9 mph - N/A   Mostly Cloudy
1:53 PM 84.0 °F 89.0 °F 71.1 °F 65% 30.13 in 10.0 mi East 6.9 mph - N/A   Mostly Cloudy
1:59 PM 84.2 °F 89.6 °F 71.6 °F 66% 30.15 in 10.0 mi ESE 9.2 mph - N/A   Scattered Clouds
2:53 PM 86.0 °F 91.5 °F 71.1 °F 61% 30.11 in 10.0 mi SE 6.9 mph - N/A   Scattered Clouds
3:53 PM 87.1 °F 92.8 °F 71.1 °F 59% 30.08 in 10.0 mi East 11.5 mph - N/A   Partly Cloudy
4:53 PM 84.9 °F 90.1 °F 71.1 °F 63% 30.06 in 10.0 mi East 8.1 mph - N/A   Scattered Clouds
5:53 PM 84.0 °F 89.0 °F 71.1 °F 65% 30.07 in 10.0 mi East 6.9 mph - N/A   Mostly Cloudy
6:53 PM 82.0 °F 85.9 °F 70.0 °F 67% 30.07 in 10.0 mi East 13.8 mph - N/A   Clear
7:53 PM 80.1 °F 82.9 °F 69.1 °F 69% 30.09 in 10.0 mi East 9.2 mph - N/A   Mostly Cloudy
8:53 PM 78.1 °F - 68.0 °F 71% 30.09 in 10.0 mi East 8.1 mph - N/A   Partly Cloudy
9:53 PM 77.0 °F - 66.9 °F 71% 30.14 in 10.0 mi ESE 6.9 mph - N/A   Partly Cloudy
10:53 PM 77.0 °F - 66.9 °F 71% 30.15 in 10.0 mi Calm Calm - N/A   Overcast
11:53 PM 75.9 °F - 66.0 °F 71% 30.15 in 10.0 mi East 6.9 mph - N/A   Clear